Location: Bannatyne
(13.0833°N, 59.5333°W)
Time: 18:04:33
(UTC+00:00)

deb Explorer IX - Pass Details

Date: 27 January 2020
Orbit: 549 x 1099 km, 38.8° (Epoch: 22 February)

Event Time Altitude Azimuth Distance (km) Brightness Sun altitude
Rises 21:51:53 0° 227° (SW) 3,157 ? 0.3°
Reaches altitude 10° 21:54:09 10° 226° (SW) 2,314 ? -0.2°
Maximum altitude 21:59:40 78° 139° (SE) 887 ? -1.5°
Drops below altitude 10° 22:06:09 10° 54° (NE) 2,705 ? -3.0°
Enters shadow 22:08:21 - 53° (NE) 3,497 ? -3.5°
Sets 22:08:59 0° 53° (NE) 3,727 - -3.7°
